Location: Unspecified
(46.0725°N, 13.7344°E)
Time: 11:33:53
(UTC+01:00)

Cosmos 2058 - Visible Passes

Search period start: 22 January 2018 00:00
Search period end: 01 February 2018 00:00
Orbit: 564 x 584 km, 82.5° (Epoch: 21 January)

Date Brightness Start Highest point End Pass type
(mag) Time Alt. Az. Time Alt. Az. Time Alt. Az.
22 Jan 3.2 05:42:25 10° N 05:46:39 70° E 05:50:50 10° SSE visible
22 Jan 3.7 18:09:17 10° SSE 18:12:57 31° E 18:15:56 14° NE visible
22 Jan 5.1 19:46:29 10° SW 19:49:54 24° WNW 19:52:15 16° NNW visible
23 Jan 2.8 05:45:39 10° N 05:49:54 88° WSW 05:54:04 10° S visible
23 Jan 3.3 18:12:12 10° SSE 18:16:07 40° E 18:20:04 10° NNE visible
23 Jan 5.5 19:50:12 10° WSW 19:53:14 19° WNW 19:56:18 10° NNW visible
24 Jan 6.0 04:13:48 10° NE 04:15:40 13° ENE 04:17:31 10° E visible
24 Jan 2.8 05:49:25 13° NNW 05:53:06 67° W 05:57:15 10° S visible
24 Jan 3.0 18:15:14 10° S 18:19:18 53° E 18:23:25 10° NNE visible
24 Jan 5.9 19:54:06 10° WSW 19:56:36 15° WNW 19:59:05 10° NNW visible
25 Jan 5.8 04:17:20 13° NE 04:19:02 16° ENE 04:21:39 10° ESE visible
25 Jan 3.0 05:53:37 20° NNW 05:56:18 50° W 06:00:19 10° S visible
25 Jan 2.8 18:18:20 10° S 18:22:29 71° E 18:26:42 10° NNE visible
25 Jan 6.1 19:58:20 10° W 19:59:58 12° WNW 20:01:36 10° NW visible
26 Jan 5.4 04:21:40 19° NE 04:22:23 20° ENE 04:25:31 10° ESE visible
26 Jan 3.4 05:57:59 28° NW 05:59:28 38° W 06:03:20 10° SSW visible
26 Jan 2.9 18:21:31 10° S 18:25:43 87° W 18:29:57 10° N visible
27 Jan 5.1 04:26:09 25° E 04:26:09 25° E 04:29:12 10° SE visible
27 Jan 3.7 06:02:27 29° W 06:02:37 29° W 06:06:15 10° SSW visible
27 Jan 3.3 18:24:47 10° SSW 18:28:56 66° W 18:33:09 10° N visible
28 Jan 5.1 04:30:44 23° ESE 04:30:44 23° ESE 04:32:46 10° SE visible
28 Jan 4.4 06:07:03 20° WSW 06:07:03 20° WSW 06:09:02 10° SW visible
28 Jan 3.9 18:28:07 10° SSW 18:32:11 50° WNW 18:36:19 10° N visible
29 Jan 5.4 04:35:23 16° SE 04:35:23 16° SE 04:36:16 10° SSE visible
29 Jan 4.4 18:31:33 10° SW 18:35:28 38° WNW 18:39:26 10° N visible
30 Jan 4.9 18:35:04 10° SW 18:38:46 29° WNW 18:42:30 10° NNW visible
31 Jan 5.4 18:38:40 10° SW 18:42:04 23° WNW 18:45:29 10° NNW visible
